Location: Stargard Szczeciński
(53.2000°N, 15.2000°E)
Time: 23:40:49
(UTC+01:00)

ISS - Visible Passes

Search period start: 21 January 2018 00:00
Search period end: 31 January 2018 00:00
Orbit: 402 x 407 km, 51.6° (Epoch: 22 January)

Date Brightness Start Highest point End Pass type
(mag) Time Alt. Az. Time Alt. Az. Time Alt. Az.
26 Jan -1.2 18:55:56 10° S 18:56:24 12° S 18:56:24 12° S visible
27 Jan -1.5 18:04:51 10° SSE 18:06:07 12° SE 18:06:25 12° SE visible
27 Jan -0.7 19:38:52 10° SW 19:39:05 11° SW 19:39:05 11° SW visible
28 Jan -2.3 18:46:50 10° SW 18:49:02 26° S 18:49:02 26° S visible
29 Jan -2.0 17:55:01 10° SSW 17:57:29 20° SSE 17:58:54 16° ESE visible
29 Jan -1.4 19:30:20 10° WSW 19:31:34 21° WSW 19:31:34 21° WSW visible
30 Jan -3.3 18:38:05 10° SW 18:41:12 42° SSE 18:41:23 42° SSE visible
